QPF
0.00 0.00 0.00 0.00 0.01 0.01 0.01 0.00 0.01 0.02 0.05 0.08 0.08 0.12 0.18 0.20 0.21 0.20 0.21 0.21 0.23 0.23 0.23 0.21 0.20 0.18 0.13 0.10 0.07 0.04 0.02 0.01 0.01 0.01 0.00 0.00 0.00 0.00 0.00 0.00 0.00 0.00 0.00
0.00 0.00 0.00 0.00 0.01 0.02 0.01 0.02 0.03 0.06 0.13 0.22 0.28 0.35 0.38 0.38 0.38 0.39 0.41 0.40 0.38 0.36 0.33 0.29 0.25 0.18 0.12 0.08 0.05 0.03 0.02 0.01 0.01 0.00 0.00 0.00 0.00 0.00 0.00 0.00 0.00 0.00 0.00
0.00 0.00 0.00 0.00 0.00 0.02 0.03 0.04 0.05 0.13 0.25 0.35 0.41 0.47 0.48 0.45 0.43 0.45 0.49 0.50 0.50 0.46 0.38 0.32 0.24 0.19 0.13 0.08 0.04 0.02 0.01 0.00 0.00 0.00 0.00 0.00 0.00 0.00 0.00 0.00 0.00 0.00 0.00
0.00 0.00 0.00 0.00 0.01 0.04 0.07 0.09 0.11 0.22 0.34 0.46 0.57 0.62 0.62 0.59 0.55 0.54 0.57 0.58 0.53 0.43 0.35 0.29 0.21 0.14 0.08 0.04 0.01 0.00 0.00 0.00 0.00 0.00 0.00 0.00 0.00 0.00 0.00 0.00 0.00 0.00 0.00
0.00 0.00 0.00 0.01 0.02 0.06 0.10 0.12 0.18 0.30 0.48 0.64 0.75 0.74 0.70 0.63 0.56 0.54 0.55 0.50 0.40 0.31 0.25 0.17 0.09 0.05 0.02 0.01 0.00 0.00 0.00 0.00 0.00 0.00 0.00 0.00 0.00 0.00 0.00 0.00 0.00 0.00 0.00
0.00 0.00 0.00 0.01 0.04 0.09 0.14 0.16 0.24 0.39 0.59 0.75 0.76 0.67 0.60 0.54 0.51 0.50 0.49 0.39 0.29 0.22 0.13 0.06 0.03 0.01 0.00 0.00 0.00 0.00 0.00 0.00 0.00 0.00 0.00 0.00 0.00 0.00 0.00 0.00 0.00 0.00 0.00
0.00 0.00 0.01 0.03 0.07 0.12 0.17 0.25 0.36 0.49 0.62 0.72 0.76 0.70 0.56 0.48 0.45 0.38 0.28 0.19 0.13 0.08 0.04 0.02 0.01 0.00 0.00 0.00 0.00 0.00 0.00 0.00 0.00 0.00 0.00 0.00 0.00 0.00 0.00 0.00 0.00 0.00 0.00
0.00 0.01 0.03 0.07 0.14 0.21 0.29 0.41 0.54 0.64 0.65 0.63 0.59 0.51 0.42 0.35 0.27 0.18 0.13 0.08 0.05 0.03 0.01 0.00 0.00 0.00 0.00 0.00 0.00 0.00 0.00 0.00 0.00 0.00 0.00 0.00 0.00 0.00 0.00 0.00 0.00 0.00 0.00
0.01 0.03 0.06 0.12 0.19 0.28 0.39 0.48 0.56 0.60 0.56 0.48 0.40 0.33 0.29 0.23 0.17 0.12 0.07 0.04 0.02 0.01 0.01 0.00 0.00 0.00 0.00 0.00 0.00 0.00 0.00 0.00 0.00 0.00 0.00 0.00 0.00 0.00 0.00 0.00 0.00 0.00 0.00
0.03 0.05 0.08 0.12 0.15 0.20 0.24 0.27 0.30 0.33 0.33 0.30 0.27 0.24 0.18 0.13 0.09 0.05 0.03 0.02 0.01 0.01 0.00 0.00 0.00 0.00 0.00 0.00 0.00 0.00 0.00 0.00 0.00 0.00 0.00 0.00 0.00 0.00 0.00 0.00 0.00 0.00 0.00
0.04 0.05 0.06 0.08 0.11 0.15 0.19 0.22 0.24 0.25 0.22 0.19 0.14 0.09 0.06 0.05 0.04 0.03 0.02 0.02 0.01 0.01 0.00 0.00 0.00 0.00 0.00 0.00 0.00 0.00 0.00 0.00 0.00 0.00 0.00 0.00 0.00 0.00 0.00 0.00 0.00 0.00 0.00
0.03 0.04 0.03 0.04 0.05 0.07 0.08 0.09 0.09 0.09 0.09 0.06 0.04 0.04 0.04 0.03 0.03 0.02 0.01 0.01 0.00 0.00 0.00 0.00 0.00 0.00 0.00 0.00 0.00 0.00 0.00 0.00 0.00 0.00 0.00 0.00 0.00 0.00 0.00 0.00 0.00 0.00 0.00
0.02 0.02 0.02 0.02 0.02 0.02 0.02 0.02 0.02 0.02 0.02 0.02 0.02 0.02 0.02 0.01 0.01 0.00 0.00 0.00 0.00 0.00 0.00 0.00 0.00 0.00 0.00 0.00 0.00 0.00 0.00 0.00 0.00 0.00 0.00 0.00 0.00 0.00 0.00 0.00 0.00 0.00 0.00
0.01 0.01 0.01 0.01 0.01 0.01 0.01 0.00 0.00 0.00 0.01 0.01 0.01 0.00 0.00 0.00 0.00 0.00 0.00 0.00 0.00 0.00 0.00 0.00 0.00 0.00 0.00 0.00 0.00 0.00 0.00 0.00 0.00 0.00 0.00 0.00 0.00 0.00 0.00 0.00 0.00 0.00 0.01
0.01 0.01 0.01 0.01 0.00 0.00 0.00 0.00 0.00 0.00 0.00 0.00 0.00 0.00 0.00 0.00 0.01 0.01 0.01 0.00 0.00 0.00 0.00 0.00 0.00 0.00 0.00 0.00 0.00 0.00 0.00 0.00 0.00 0.00 0.00 0.00 0.00 0.00 0.00 0.01 0.01 0.01 0.01
0.01 0.00 0.00 0.00 0.00 0.00 0.00 0.00 0.00 0.00 0.00 0.00 0.01 0.01 0.02 0.02 0.01 0.01 0.00 0.00 0.00 0.00 0.00 0.00 0.00 0.00 0.00 0.00 0.00 0.00 0.00 0.00 0.00 0.00 0.00 0.00 0.00 0.00 0.00 0.01 0.01 0.02 0.02
0.02 0.01 0.01 0.01 0.00 0.00 0.00 0.00 0.01 0.01 0.02 0.02 0.03 0.03 0.03 0.02 0.01 0.00 0.00 0.00 0.00 0.00 0.00 0.00 0.00 0.00 0.00 0.00 0.00 0.00 0.00 0.00 0.00 0.00 0.00 0.00 0.00 0.00 0.00 0.00 0.01 0.01 0.01
0.01 0.01 0.01 0.00 0.00 0.01 0.01 0.02 0.03 0.03 0.04 0.04 0.04 0.03 0.02 0.01 0.01 0.00 0.00 0.00 0.00 0.00 0.00 0.00 0.00 0.00 0.00 0.00 0.00 0.00 0.00 0.00 0.00 0.00 0.00 0.00 0.00 0.00 0.01 0.01 0.00 0.00 0.00
0.01 0.00 0.00 0.00 0.01 0.02 0.02 0.04 0.05 0.05 0.04 0.03 0.02 0.02 0.01 0.01 0.01 0.00 0.00 0.00 0.00 0.00 0.00 0.00 0.00 0.00 0.00 0.00 0.00 0.00 0.00 0.00 0.00 0.00 0.00 0.00 0.00 0.01 0.01 0.01 0.01 0.01 0.00
0.00 0.00 0.00 0.01 0.01 0.02 0.02 0.03 0.03 0.03 0.02 0.01 0.01 0.01 0.00 0.00 0.00 0.00 0.00 0.00 0.00 0.00 0.00 0.00 0.00 0.00 0.00 0.00 0.00 0.00 0.00 0.00 0.00 0.00 0.00 0.00 0.00 0.01 0.01 0.01 0.02 0.03 0.02
0.00 0.00 0.00 0.01 0.01 0.02 0.01 0.01 0.01 0.01 0.01 0.00 0.00 0.00 0.00 0.00 0.00 0.00 0.00 0.00 0.00 0.00 0.00 0.00 0.00 0.00 0.00 0.00 0.00 0.00 0.00 0.00 0.00 0.00 0.00 0.00 0.01 0.01 0.01 0.02 0.03 0.04 0.04
0.00 0.00 0.00 0.01 0.01 0.01 0.01 0.01 0.00 0.00 0.00 0.00 0.00 0.00 0.00 0.00 0.00 0.00 0.00 0.00 0.00 0.00 0.00 0.00 0.00 0.00 0.00 0.00 0.00 0.00 0.00 0.00 0.00 0.00 0.00 0.01 0.01 0.01 0.01 0.02 0.02 0.03 0.03
0.00 0.00 0.00 0.01 0.01 0.00 0.00 0.00 0.00 0.00 0.00 0.00 0.00 0.00 0.00 0.00 0.00 0.00 0.00 0.00 0.00 0.00 0.00 0.00 0.00 0.00 0.00 0.00 0.00 0.00 0.00 0.00 0.00 0.00 0.00 0.01 0.01 0.01 0.02 0.02 0.02 0.02 0.03
0.00 0.00 0.00 0.00 0.00 0.00 0.00 0.00 0.00 0.00 0.00 0.00 0.00 0.00 0.00 0.00 0.00 0.00 0.00 0.00 0.00 0.00 0.00 0.00 0.00 0.00 0.00 0.00 0.00 0.00 0.00 0.00 0.00 0.00 0.00 0.01 0.01 0.02 0.02 0.02 0.02 0.03 0.04
0.00 0.00 0.00 0.00 0.00 0.00 0.00 0.00 0.00 0.00 0.00 0.00 0.00 0.00 0.00 0.00 0.00 0.00 0.00 0.00 0.00 0.00 0.00 0.00 0.00 0.00 0.00 0.00 0.00 0.00 0.00 0.00 0.00 0.00 0.00 0.00 0.01 0.02 0.02 0.02 0.02 0.04 0.05
0.00 0.00 0.00 0.00 0.00 0.00 0.00 0.00 0.00 0.00 0.00 0.00 0.00 0.00 0.00 0.00 0.00 0.00 0.00 0.00 0.00 0.00 0.00 0.00 0.00 0.00 0.00 0.00 0.00 0.00 0.00 0.00 0.01 0.00 0.00 0.01 0.02 0.03 0.03 0.03 0.04 0.05 0.05
MSLP
1008.45 1008.39 1008.37 1008.40 1008.47 1008.60 1008.81 1009.14 1009.60 1010.18 1010.87 1011.61 1012.38 1013.12 1013.79 1014.39 1014.91 1015.38 1015.81 1016.26 1016.73 1017.25 1017.81 1018.40 1018.98 1019.51 1019.99 1020.38 1020.68 1020.91 1021.08 1021.22 1021.35 1021.48 1021.61 1021.74 1021.86 1021.94 1021.99 1021.98 1021.93 1021.84 1021.71
1007.95 1007.87 1007.85 1007.87 1007.93 1008.05 1008.26 1008.61 1009.10 1009.74 1010.49 1011.33 1012.18 1013.00 1013.75 1014.40 1014.96 1015.45 1015.91 1016.37 1016.87 1017.42 1018.01 1018.62 1019.22 1019.77 1020.24 1020.62 1020.90 1021.11 1021.26 1021.38 1021.51 1021.64 1021.79 1021.93 1022.07 1022.16 1022.20 1022.18 1022.11 1022.00 1021.86
1007.54 1007.48 1007.47 1007.50 1007.57 1007.70 1007.94 1008.30 1008.83 1009.52 1010.33 1011.23 1012.15 1013.04 1013.84 1014.54 1015.13 1015.65 1016.12 1016.60 1017.11 1017.67 1018.27 1018.88 1019.47 1020.01 1020.46 1020.81 1021.06 1021.23 1021.36 1021.47 1021.59 1021.73 1021.89 1022.05 1022.19 1022.28 1022.32 1022.29 1022.20 1022.06 1021.90
1007.35 1007.31 1007.34 1007.40 1007.50 1007.66 1007.91 1008.30 1008.85 1009.57 1010.42 1011.36 1012.32 1013.24 1014.08 1014.81 1015.43 1015.96 1016.44 1016.93 1017.44 1017.99 1018.58 1019.18 1019.75 1020.26 1020.68 1020.99 1021.21 1021.35 1021.45 1021.55 1021.67 1021.81 1021.97 1022.13 1022.27 1022.36 1022.37 1022.32 1022.19 1022.03 1021.84
1007.46 1007.46 1007.53 1007.64 1007.77 1007.95 1008.23 1008.63 1009.19 1009.92 1010.77 1011.72 1012.68 1013.62 1014.46 1015.20 1015.82 1016.36 1016.85 1017.33 1017.84 1018.38 1018.95 1019.53 1020.07 1020.54 1020.92 1021.20 1021.38 1021.50 1021.58 1021.67 1021.77 1021.91 1022.06 1022.21 1022.33 1022.40 1022.38 1022.29 1022.13 1021.92 1021.69
1007.90 1007.96 1008.08 1008.22 1008.39 1008.60 1008.88 1009.28 1009.83 1010.54 1011.36 1012.28 1013.22 1014.13 1014.95 1015.67 1016.29 1016.82 1017.30 1017.78 1018.28 1018.80 1019.35 1019.90 1020.41 1020.85 1021.19 1021.44 1021.60 1021.70 1021.77 1021.84 1021.93 1022.05 1022.19 1022.31 1022.40 1022.42 1022.36 1022.22 1022.01 1021.75 1021.48
1008.66 1008.77 1008.94 1009.13 1009.33 1009.55 1009.83 1010.21 1010.73 1011.38 1012.15 1013.00 1013.88 1014.73 1015.52 1016.20 1016.79 1017.31 1017.78 1018.24 1018.73 1019.24 1019.76 1020.28 1020.76 1021.17 1021.49 1021.72 1021.86 1021.95 1022.00 1022.06 1022.14 1022.24 1022.34 1022.42 1022.46 1022.43 1022.31 1022.11 1021.84 1021.54 1021.22
1009.65 1009.83 1010.05 1010.28 1010.49 1010.72 1010.99 1011.33 1011.79 1012.37 1013.06 1013.83 1014.63 1015.40 1016.12 1016.75 1017.31 1017.80 1018.25 1018.70 1019.17 1019.66 1020.16 1020.65 1021.10 1021.49 1021.79 1022.00 1022.13 1022.21 1022.26 1022.31 1022.36 1022.43 1022.49 1022.52 1022.50 1022.41 1022.23 1021.98 1021.66 1021.30 1020.93
1010.78 1011.02 1011.29 1011.55 1011.79 1012.01 1012.25 1012.55 1012.94 1013.44 1014.04 1014.71 1015.41 1016.10 1016.74 1017.32 1017.83 1018.28 1018.72 1019.15 1019.59 1020.06 1020.53 1020.99 1021.42 1021.78 1022.06 1022.26 1022.38 1022.46 1022.50 1022.53 1022.57 1022.60 1022.62 1022.60 1022.52 1022.37 1022.13 1021.82 1021.45 1021.05 1020.65
1011.93 1012.24 1012.56 1012.85 1013.10 1013.31 1013.52 1013.77 1014.10 1014.52 1015.02 1015.59 1016.20 1016.80 1017.37 1017.88 1018.35 1018.77 1019.18 1019.58 1020.00 1020.44 1020.88 1021.31 1021.70 1022.03 1022.29 1022.48 1022.60 1022.67 1022.70 1022.72 1022.73 1022.73 1022.70 1022.63 1022.49 1022.29 1022.00 1021.64 1021.24 1020.81 1020.38
1013.02 1013.40 1013.77 1014.09 1014.34 1014.54 1014.72 1014.93 1015.20 1015.55 1015.97 1016.45 1016.97 1017.49 1018.00 1018.46 1018.88 1019.28 1019.65 1020.04 1020.42 1020.83 1021.23 1021.62 1021.97 1022.27 1022.50 1022.66 1022.76 1022.82 1022.84 1022.85 1022.83 1022.80 1022.73 1022.61 1022.43 1022.17 1021.84 1021.45 1021.02 1020.56 1020.11
1014.00 1014.46 1014.87 1015.20 1015.46 1015.65 1015.81 1015.99 1016.21 1016.49 1016.85 1017.27 1017.72 1018.18 1018.63 1019.05 1019.44 1019.81 1020.16 1020.52 1020.88 1021.24 1021.60 1021.94 1022.24 1022.50 1022.69 1022.82 1022.90 1022.94 1022.94 1022.92 1022.88 1022.81 1022.70 1022.54 1022.32 1022.02 1021.65 1021.23 1020.78 1020.30 1019.84
1014.90 1015.41 1015.84 1016.19 1016.44 1016.62 1016.76 1016.91 1017.10 1017.35 1017.66 1018.02 1018.43 1018.85 1019.26 1019.65 1020.03 1020.38 1020.71 1021.04 1021.37 1021.70 1022.01 1022.30 1022.55 1022.75 1022.89 1022.98 1023.02 1023.03 1023.00 1022.95 1022.88 1022.77 1022.62 1022.42 1022.16 1021.82 1021.43 1020.98 1020.50 1020.00 1019.51
1015.72 1016.26 1016.71 1017.05 1017.29 1017.46 1017.59 1017.72 1017.88 1018.10 1018.39 1018.72 1019.10 1019.49 1019.89 1020.27 1020.63 1020.97 1021.30 1021.61 1021.92 1022.21 1022.47 1022.71 1022.90 1023.04 1023.12 1023.16 1023.15 1023.11 1023.04 1022.95 1022.84 1022.69 1022.50 1022.25 1021.95 1021.58 1021.14 1020.66 1020.16 1019.63 1019.12
1016.51 1017.06 1017.50 1017.82 1018.04 1018.19 1018.30 1018.42 1018.57 1018.78 1019.05 1019.37 1019.73 1020.11 1020.50 1020.88 1021.24 1021.58 1021.90 1022.20 1022.49 1022.75 1022.97 1023.15 1023.28 1023.36 1023.38 1023.35 1023.28 1023.19 1023.07 1022.92 1022.76 1022.56 1022.33 1022.04 1021.68 1021.27 1020.80 1020.28 1019.74 1019.18 1018.64
1017.29 1017.83 1018.24 1018.53 1018.72 1018.85 1018.94 1019.05 1019.19 1019.40 1019.66 1019.97 1020.33 1020.70 1021.09 1021.47 1021.83 1022.17 1022.50 1022.79 1023.06 1023.29 1023.48 1023.60 1023.68 1023.69 1023.64 1023.55 1023.42 1023.26 1023.07 1022.87 1022.65 1022.40 1022.11 1021.76 1021.36 1020.90 1020.39 1019.84 1019.25 1018.66 1018.08
1018.08 1018.58 1018.94 1019.19 1019.35 1019.45 1019.53 1019.63 1019.77 1019.97 1020.23 1020.54 1020.89 1021.27 1021.65 1022.03 1022.40 1022.74 1023.06 1023.35 1023.60 1023.81 1023.96 1024.04 1024.06 1024.01 1023.90 1023.74 1023.53 1023.30 1023.05 1022.78 1022.50 1022.19 1021.84 1021.44 1020.99 1020.49 1019.93 1019.34 1018.72 1018.10 1017.49
1018.86 1019.30 1019.62 1019.82 1019.94 1020.02 1020.08 1020.18 1020.32 1020.52 1020.78 1021.09 1021.44 1021.81 1022.19 1022.56 1022.93 1023.27 1023.58 1023.85 1024.08 1024.26 1024.38 1024.42 1024.39 1024.28 1024.11 1023.88 1023.61 1023.31 1023.00 1022.66 1022.31 1021.94 1021.54 1021.09 1020.60 1020.05 1019.46 1018.84 1018.20 1017.55 1016.92
1019.60 1019.98 1020.24 1020.40 1020.49 1020.55 1020.61 1020.70 1020.84 1021.05 1021.32 1021.63 1021.97 1022.34 1022.70 1023.07 1023.42 1023.74 1024.04 1024.29 1024.50 1024.64 1024.72 1024.72 1024.64 1024.48 1024.26 1023.97 1023.64 1023.28 1022.91 1022.51 1022.11 1021.68 1021.22 1020.74 1020.20 1019.63 1019.01 1018.37 1017.71 1017.06 1016.42
1020.26 1020.59 1020.80 1020.92 1020.99 1021.04 1021.10 1021.20 1021.35 1021.57 1021.84 1022.15 1022.49 1022.84 1023.20 1023.54 1023.87 1024.17 1024.43 1024.66 1024.83 1024.94 1024.98 1024.94 1024.82 1024.61 1024.34 1024.01 1023.63 1023.22 1022.79 1022.35 1021.89 1021.42 1020.93 1020.41 1019.85 1019.25 1018.63 1017.98 1017.32 1016.67 1016.04
1020.81 1021.10 1021.27 1021.36 1021.42 1021.47 1021.54 1021.65 1021.83 1022.06 1022.34 1022.65 1022.98 1023.32 1023.66 1023.98 1024.28 1024.54 1024.77 1024.96 1025.09 1025.16 1025.16 1025.08 1024.92 1024.68 1024.37 1024.00 1023.58 1023.14 1022.67 1022.19 1021.70 1021.20 1020.68 1020.14 1019.57 1018.96 1018.33 1017.69 1017.04 1016.40 1015.79
1021.25 1021.49 1021.64 1021.72 1021.77 1021.83 1021.92 1022.05 1022.25 1022.49 1022.78 1023.10 1023.43 1023.76 1024.07 1024.36 1024.63 1024.86 1025.05 1025.19 1025.28 1025.31 1025.27 1025.15 1024.96 1024.69 1024.35 1023.95 1023.52 1023.05 1022.56 1022.06 1021.55 1021.04 1020.50 1019.95 1019.37 1018.77 1018.15 1017.51 1016.87 1016.24 1015.65
1021.56 1021.77 1021.90 1021.98 1022.04 1022.11 1022.22 1022.37 1022.59 1022.85 1023.15 1023.47 1023.79 1024.11 1024.41 1024.67 1024.90 1025.10 1025.25 1025.35 1025.40 1025.39 1025.32 1025.17 1024.95 1024.65 1024.30 1023.89 1023.44 1022.97 1022.48 1021.97 1021.46 1020.94 1020.40 1019.85 1019.27 1018.68 1018.06 1017.43 1016.80 1016.19 1015.60
1021.77 1021.96 1022.08 1022.16 1022.23 1022.31 1022.43 1022.60 1022.83 1023.10 1023.40 1023.72 1024.05 1024.35 1024.63 1024.88 1025.08 1025.25 1025.36 1025.43 1025.45 1025.41 1025.30 1025.13 1024.89 1024.59 1024.23 1023.82 1023.37 1022.90 1022.42 1021.92 1021.41 1020.90 1020.37 1019.83 1019.26 1018.67 1018.06 1017.44 1016.82 1016.21 1015.62
1021.90 1022.08 1022.20 1022.28 1022.35 1022.44 1022.57 1022.75 1022.97 1023.24 1023.54 1023.86 1024.17 1024.47 1024.73 1024.96 1025.15 1025.29 1025.38 1025.43 1025.42 1025.35 1025.23 1025.04 1024.79 1024.49 1024.13 1023.73 1023.30 1022.85 1022.38 1021.90 1021.41 1020.92 1020.40 1019.87 1019.31 1018.74 1018.14 1017.52 1016.90 1016.28 1015.70
1022.01 1022.18 1022.29 1022.37 1022.44 1022.52 1022.65 1022.81 1023.03 1023.28 1023.57 1023.87 1024.17 1024.45 1024.71 1024.92 1025.10 1025.23 1025.30 1025.33 1025.31 1025.23 1025.09 1024.90 1024.65 1024.36 1024.02 1023.64 1023.23 1022.80 1022.36 1021.91 1021.44 1020.97 1020.48 1019.96 1019.43 1018.86 1018.27 1017.66 1017.04 1016.42 1015.82
Thickness
5801 5798 5796 5794 5790 5785 5780 5773 5766 5760 5753 5744 5736 5727 5719 5712 5705 5701 5697 5693 5687 5682 5676 5671 5665 5660 5656 5652 5649 5646 5642 5638 5635 5632 5627 5621 5618 5615 5612 5610 5608 5605 5602
5788 5790 5791 5790 5788 5784 5778 5771 5764 5757 5750 5742 5732 5721 5709 5700 5694 5689 5685 5681 5676 5672 5667 5661 5655 5650 5646 5642 5639 5637 5632 5627 5624 5622 5617 5612 5608 5604 5600 5597 5595 5591 5589
5785 5787 5787 5787 5784 5781 5777 5770 5762 5753 5744 5735 5723 5711 5699 5689 5680 5677 5674 5670 5666 5662 5657 5652 5647 5641 5637 5632 5629 5626 5623 5617 5611 5609 5606 5603 5599 5592 5589 5585 5582 5578 5575
5782 5784 5783 5781 5779 5777 5772 5764 5754 5744 5735 5726 5717 5707 5696 5682 5673 5668 5664 5659 5656 5652 5647 5642 5637 5632 5627 5623 5619 5615 5612 5608 5602 5597 5592 5588 5583 5579 5577 5574 5569 5565 5562
5774 5777 5776 5773 5769 5766 5760 5753 5742 5732 5723 5714 5705 5695 5686 5676 5665 5658 5653 5649 5645 5641 5637 5634 5629 5622 5617 5613 5609 5604 5600 5596 5591 5586 5580 5574 5568 5563 5561 5560 5558 5554 5549
5762 5762 5761 5760 5756 5752 5746 5739 5729 5719 5710 5701 5693 5684 5676 5665 5657 5650 5644 5639 5634 5630 5626 5623 5618 5612 5607 5602 5598 5593 5588 5583 5578 5573 5567 5562 5557 5552 5545 5543 5544 5544 5541
5747 5747 5745 5743 5740 5736 5731 5724 5717 5706 5698 5689 5679 5672 5665 5655 5648 5641 5635 5629 5625 5620 5615 5612 5606 5601 5596 5591 5585 5580 5576 5570 5565 5559 5553 5548 5542 5536 5531 5527 5527 5527 5528
5733 5732 5730 5727 5723 5719 5714 5709 5702 5694 5687 5681 5670 5659 5650 5644 5638 5631 5626 5621 5617 5611 5606 5601 5595 5589 5584 5579 5573 5568 5563 5557 5551 5545 5539 5533 5527 5520 5514 5510 5508 5510 5513
5717 5715 5712 5709 5706 5702 5698 5695 5688 5681 5675 5668 5659 5649 5640 5633 5627 5621 5616 5611 5605 5601 5595 5589 5583 5577 5572 5566 5561 5555 5549 5543 5536 5530 5523 5517 5511 5505 5499 5493 5488 5486 5493
5701 5699 5696 5693 5689 5686 5682 5677 5671 5666 5659 5652 5644 5636 5629 5623 5618 5612 5604 5598 5593 5587 5581 5575 5569 5563 5557 5552 5546 5539 5533 5526 5520 5513 5507 5501 5495 5489 5484 5478 5472 5466 5465
5685 5682 5679 5676 5673 5670 5666 5661 5656 5650 5643 5635 5629 5622 5616 5610 5604 5598 5591 5585 5579 5573 5567 5560 5554 5548 5542 5536 5529 5523 5516 5509 5503 5497 5491 5485 5480 5475 5469 5463 5457 5452 5447
5669 5667 5664 5661 5658 5654 5649 5645 5639 5634 5627 5620 5614 5608 5602 5596 5589 5582 5576 5569 5563 5557 5551 5545 5539 5532 5526 5519 5513 5506 5499 5493 5487 5481 5475 5470 5466 5460 5455 5450 5444 5439 5434
5653 5650 5647 5644 5641 5637 5633 5629 5624 5618 5613 5607 5600 5593 5586 5580 5573 5566 5560 5554 5548 5542 5536 5530 5523 5516 5509 5502 5496 5489 5483 5477 5471 5466 5461 5456 5451 5447 5443 5437 5432 5428 5424
5638 5634 5630 5626 5623 5620 5616 5612 5607 5603 5598 5592 5585 5578 5570 5563 5557 5550 5545 5539 5533 5526 5520 5513 5506 5499 5493 5486 5480 5474 5468 5462 5457 5452 5448 5443 5439 5435 5431 5427 5422 5418 5414
5623 5618 5613 5608 5605 5602 5598 5595 5591 5587 5582 5576 5569 5561 5554 5548 5541 5535 5528 5522 5516 5510 5503 5496 5489 5483 5477 5471 5465 5459 5454 5449 5445 5440 5435 5431 5427 5425 5420 5416 5412 5408 5407
5609 5603 5598 5593 5589 5586 5582 5578 5575 5570 5565 5558 5551 5544 5538 5531 5524 5517 5511 5505 5499 5492 5486 5479 5473 5467 5463 5457 5452 5447 5442 5438 5434 5430 5425 5420 5417 5413 5409 5405 5402 5401 5401
5595 5588 5582 5576 5572 5569 5566 5562 5557 5553 5548 5541 5534 5528 5521 5514 5508 5501 5494 5487 5481 5475 5469 5463 5458 5453 5449 5445 5440 5435 5431 5426 5423 5419 5415 5411 5408 5404 5401 5399 5398 5398 5398
5579 5572 5565 5560 5556 5552 5549 5544 5540 5536 5530 5523 5517 5511 5505 5497 5490 5484 5477 5470 5464 5459 5453 5448 5444 5440 5436 5432 5428 5424 5419 5416 5413 5410 5407 5404 5401 5399 5397 5397 5398 5399 5401
5562 5556 5550 5545 5540 5536 5532 5528 5523 5518 5513 5507 5501 5495 5488 5481 5474 5467 5461 5455 5449 5444 5440 5435 5430 5427 5423 5420 5416 5413 5409 5407 5405 5404 5402 5400 5398 5396 5395 5396 5398 5401 5403
5545 5540 5535 5530 5525 5519 5516 5511 5506 5501 5495 5490 5485 5479 5472 5466 5459 5452 5446 5440 5436 5431 5426 5422 5417 5414 5410 5408 5405 5402 5400 5399 5399 5398 5398 5397 5396 5396 5396 5397 5399 5402 5404
5529 5524 5520 5514 5509 5504 5500 5495 5490 5485 5480 5475 5469 5463 5456 5450 5444 5437 5431 5426 5421 5417 5413 5409 5405 5402 5399 5397 5396 5394 5393 5393 5393 5394 5395 5395 5395 5397 5398 5399 5401 5402 5403
5514 5510 5505 5499 5494 5490 5486 5481 5476 5471 5466 5461 5455 5449 5442 5437 5430 5423 5417 5412 5408 5404 5399 5396 5394 5392 5390 5389 5388 5387 5387 5388 5389 5391 5392 5394 5396 5398 5401 5402 5403 5404 5404
5502 5497 5493 5488 5483 5478 5474 5469 5464 5459 5454 5448 5441 5435 5429 5422 5416 5411 5405 5400 5395 5391 5388 5385 5383 5382 5382 5381 5381 5382 5383 5385 5386 5388 5391 5395 5398 5400 5403 5405 5405 5406 5406
5490 5486 5482 5477 5471 5468 5464 5459 5455 5450 5443 5436 5428 5422 5415 5409 5404 5399 5394 5389 5385 5382 5379 5377 5375 5374 5374 5374 5374 5375 5378 5381 5384 5387 5392 5395 5399 5401 5403 5405 5406 5406 5405
5480 5476 5471 5466 5462 5459 5455 5451 5445 5439 5432 5424 5417 5410 5404 5398 5393 5388 5384 5381 5378 5374 5372 5369 5367 5367 5367 5367 5367 5369 5373 5376 5380 5385 5391 5395 5398 5401 5403 5405 5406 5406 5406
5471 5467 5463 5459 5455 5451 5446 5441 5435 5429 5421 5413 5406 5400 5394 5389 5384 5380 5377 5375 5372 5369 5366 5364 5362 5362 5361 5362 5364 5367 5372 5376 5381 5386 5390 5393 5396 5399 5401 5403 5405 5406 5406